Date String (YYYY-MM-DD hh:mm:ss) UTC,Instrument flags,Ambient pressure (hPa),Sample flow (lpm),Bypass flow (lpm),Sample temperature (°C),Ambient temperature (°C),ASC tube jacket temperature (°C),LED temperature (°C),Box temperature (°C),Sample RH (%),Span deviation,Mass concentration (μg/m³),Mass concentration (μg/m³),Mass concentration (μg/m³)
DateTimeUTC,F1_M11,P_M11,Q1_M11,Q2_M11,T1_M11,T2_M11,T3_M11,T4_M11,T5_M11,U1_M11,ZSPAN_M11,X0_M11,X2_M11,X1_M11
2022-02-17 18:00:00,,0827.8,5.00,0.00,21.8,21.8,00.0,30.7,23.5,08.4,0000.0,0007.56,0005.65,0005.48
2022-02-17 18:01:00,,0827.8,5.00,0.00,21.7,21.6,00.0,30.7,23.4,08.4,0000.0,0007.50,0005.61,0005.46
2022-02-17 18:02:00,,0827.8,4.99,0.00,21.7,21.5,00.0,30.7,23.3,08.6,0000.0,0007.48,0005.58,0005.43
2022-02-17 18:03:00,,0827.8,5.00,0.00,21.7,21.4,00.0,30.7,23.3,08.6,0000.0,0007.50,0005.58,0005.41
2022-02-17 18:04:00,,0827.8,5.00,0.00,21.6,21.3,00.0,30.7,23.2,08.6,0000.0,0007.56,0005.60,0005.39
2022-02-17 18:05:00,,0827.8,5.01,0.00,21.6,21.1,00.0,30.7,23.2,08.6,0000.0,0007.93,0005.62,0005.39
2022-02-17 18:06:00,,0827.8,5.00,0.00,21.6,21.1,00.0,30.7,23.2,08.7,0000.0,0008.64,0005.63,0005.39
2022-02-17 18:07:00,,0827.8,4.99,0.00,21.5,21.0,00.0,30.6,23.1,08.7,0000.0,0008.69,0005.65,0005.39
2022-02-17 18:08:00,,0827.8,5.01,0.00,21.5,20.9,00.0,30.6,23.1,08.6,0000.0,0008.78,0005.66,0005.40
2022-02-17 18:09:00,,0827.8,4.99,0.00,21.5,20.8,00.0,30.6,23.0,08.5,0000.0,0008.85,0005.67,0005.40
2022-02-17 18:10:00,,0827.7,5.00,0.00,21.4,20.7,00.0,30.6,22.9,08.4,0000.0,0008.81,0005.65,0005.39
2022-02-17 18:11:00,,0827.7,5.02,0.00,21.3,20.6,00.0,30.6,22.9,08.6,0000.0,0008.87,0005.65,0005.38
2022-02-17 18:12:00,,0827.7,4.99,0.00,21.3,20.6,00.0,30.5,22.8,08.9,0000.0,0009.08,0005.66,0005.37
2022-02-17 18:13:00,,0827.7,4.99,0.00,21.3,20.6,00.0,30.5,22.8,08.8,0000.0,0009.18,0005.69,0005.37
2022-02-17 18:14:00,,0827.7,5.01,0.00,21.4,21.5,00.0,30.5,23.1,08.6,0000.0,0009.10,0005.65,0005.35
2022-02-17 18:15:00,,0827.7,5.00,0.00,21.6,22.6,00.0,30.6,23.5,08.6,0000.0,0009.06,0005.61,0005.33
2022-02-17 18:16:00,,0827.7,4.98,0.00,21.8,23.1,00.0,30.6,23.8,08.5,0000.0,0008.87,0005.58,0005.31
2022-02-17 18:17:00,,0827.7,5.00,0.00,21.8,22.7,00.0,30.7,23.7,08.3,0000.0,0007.97,0005.54,0005.29
2022-02-17 18:18:00,,0827.7,5.00,0.00,21.7,22.3,00.0,30.7,23.5,08.5,0000.0,0007.94,0005.53,0005.28
2022-02-17 18:19:00,,0827.7,5.00,0.00,21.7,22.0,00.0,30.7,23.4,08.2,0000.0,0007.98,0005.53,0005.27
2022-02-17 18:20:00,,0827.7,4.99,0.00,21.6,21.7,00.0,30.7,23.3,08.2,0000.0,0007.90,0005.50,0005.23
2022-02-17 18:21:00,,0827.7,5.00,0.00,21.6,21.5,00.0,30.6,23.2,08.2,0000.0,0007.86,0005.47,0005.21
2022-02-17 18:22:00,,0827.7,4.99,0.00,21.6,21.3,00.0,30.6,23.2,08.2,0000.0,0007.79,0005.43,0005.17
2022-02-17 18:23:00,,0827.7,5.00,0.00,21.5,21.2,00.0,30.6,23.1,08.0,0000.0,0007.55,0005.39,0005.13
2022-02-17 18:24:00,,0827.7,5.00,0.00,21.5,21.1,00.0,30.6,23.0,08.0,0000.0,0007.40,0005.31,0005.07
2022-02-17 18:25:00,,0827.7,5.01,0.00,21.4,21.0,00.0,30.6,23.0,08.0,0000.0,0007.33,0005.25,0005.01
2022-02-17 18:26:00,,0827.7,5.00,0.00,21.4,20.9,00.0,30.6,23.0,08.1,0000.0,0007.24,0005.19,0004.96
2022-02-17 18:27:00,,0827.7,5.00,0.00,21.4,20.8,00.0,30.5,22.9,08.2,0000.0,0007.16,0005.13,0004.89
2022-02-17 18:28:00,,0827.6,4.99,0.00,21.3,20.7,00.0,30.5,22.9,08.1,0000.0,0007.14,0005.09,0004.84
2022-02-17 18:29:00,,0827.7,5.00,0.00,21.3,20.6,00.0,30.5,22.9,08.1,0000.0,0007.01,0005.03,0004.78
2022-02-17 18:30:00,,0827.6,5.02,0.00,21.3,20.6,00.0,30.5,22.8,08.2,0000.0,0006.67,0004.95,0004.74
2022-02-17 18:31:00,,0827.6,4.99,0.00,21.3,20.6,00.0,30.5,22.9,08.2,0000.0,0006.63,0004.92,0004.70
2022-02-17 18:32:00,,0827.5,5.00,0.00,21.3,20.7,00.0,30.4,22.9,08.0,0000.0,0006.64,0004.88,0004.66
2022-02-17 18:33:00,,0827.6,5.01,0.00,21.3,21.5,00.0,30.5,23.1,08.0,0000.0,0006.57,0004.83,0004.62
2022-02-17 18:34:00,,0827.5,5.00,0.00,21.5,22.6,00.0,30.5,23.5,08.2,0000.0,0006.58,0004.81,0004.60
2022-02-17 18:35:00,,0827.5,4.99,0.00,21.7,22.8,00.0,30.6,23.7,08.1,0000.0,0006.58,0004.79,0004.58
2022-02-17 18:36:00,,0827.5,5.00,0.00,21.7,22.5,00.0,30.6,23.7,08.1,0000.0,0006.60,0004.78,0004.57
2022-02-17 18:37:00,,0827.4,5.01,0.00,21.8,22.2,00.0,30.6,23.7,07.9,0000.0,0006.63,0004.78,0004.56
2022-02-17 18:38:00,,0827.4,5.00,0.00,21.8,22.0,00.0,30.6,23.6,07.9,0000.0,0006.60,0004.78,0004.56
2022-02-17 18:39:00,,0827.4,5.01,0.00,21.8,21.8,00.0,30.6,23.5,08.0,0000.0,0006.52,0004.76,0004.56
2022-02-17 18:40:00,,0827.4,5.00,0.00,21.7,21.6,00.0,30.6,23.5,08.2,0000.0,0006.41,0004.73,0004.54
2022-02-17 18:41:00,,0827.3,5.00,0.00,21.7,21.5,00.0,30.6,23.5,08.3,0000.0,0006.45,0004.73,0004.53
2022-02-17 18:42:00,,0827.3,5.00,0.00,21.7,21.3,00.0,30.6,23.4,08.2,0000.0,0006.30,0004.71,0004.52
2022-02-17 18:43:00,,0827.4,4.99,0.00,21.7,21.1,00.0,30.7,23.4,08.4,0000.0,0006.27,0004.72,0004.54
2022-02-17 18:44:00,,0827.3,5.01,0.00,21.7,21.1,00.0,30.7,23.3,08.2,0000.0,0006.40,0004.75,0004.56
2022-02-17 18:45:00,,0827.4,5.02,0.00,21.7,21.1,00.0,30.6,23.3,08.1,0000.0,0006.45,0004.76,0004.55
2022-02-17 18:46:00,,0827.3,5.00,0.00,21.6,21.1,00.0,30.6,23.3,08.1,0000.0,0006.48,0004.78,0004.56
2022-02-17 18:47:00,,0827.4,5.00,0.00,21.6,21.1,00.0,30.6,23.3,08.2,0000.0,0006.51,0004.79,0004.57
2022-02-17 18:48:00,,0827.4,5.00,0.00,21.6,21.1,00.0,30.6,23.2,08.3,0000.0,0006.46,0004.79,0004.58
2022-02-17 18:49:00,,0827.6,5.00,0.00,21.6,21.1,00.0,30.6,23.2,08.1,0000.0,0006.54,0004.81,0004.58
2022-02-17 18:50:00,,0827.3,5.01,0.00,21.5,21.0,00.0,30.6,23.1,08.1,0000.0,0006.68,0004.82,0004.59
2022-02-17 18:51:00,,0827.1,5.01,0.00,21.5,20.9,00.0,30.6,23.1,08.1,0000.0,0006.76,0004.84,0004.60
2022-02-17 18:52:00,,0827.2,4.99,0.00,21.5,20.9,00.0,30.6,23.0,08.2,0000.0,0006.96,0004.86,0004.60
2022-02-17 18:53:00,,0827.1,4.99,0.00,21.4,20.8,00.0,30.6,23.0,08.2,0000.0,0006.86,0004.84,0004.60
2022-02-17 18:54:00,,0827.1,5.01,0.00,21.4,20.8,00.0,30.5,23.0,08.2,0000.0,0007.02,0004.83,0004.59
2022-02-17 18:55:00,,0827.1,5.01,0.00,21.4,20.8,00.0,30.5,23.0,08.2,0000.0,0007.03,0004.83,0004.59
2022-02-17 18:56:00,,0827.1,4.99,0.00,21.4,20.8,00.0,30.5,23.0,08.6,0000.0,0007.00,0004.85,0004.62
2022-02-17 18:57:00,,0827.1,5.00,0.00,21.4,20.8,00.0,30.5,23.0,08.3,0000.0,0006.99,0004.87,0004.64
2022-02-17 18:58:00,,0827.1,5.00,0.00,21.4,20.8,00.0,30.5,23.0,08.3,0000.0,0006.99,0004.88,0004.64
2022-02-17 18:59:00,,0827.1,5.00,0.00,21.4,20.8,00.0,30.5,23.0,08.3,0000.0,0006.96,0004.88,0004.65
